Location: Newark
(27.9675°N, 86.8869°E)
Time: 04:24:06
(UTC+00:00)

Altair - Pass Details

Date: 25 October 2019
Orbit: 1502 x 1682 km, 47.2° (Epoch: 18 November)

Event Time Altitude Azimuth Distance (km) Brightness Sun altitude
Rises 06:29:17 0° 293° (WNW) 4,731 10.0 49.2°
Reaches altitude 10° 06:33:14 10° 307° (NW) 3,777 9.5 49.0°
Maximum altitude 06:40:37 24° 357° (N) 2,886 8.8 48.6°
Drops below altitude 10° 06:48:12 10° 48° (NE) 3,887 9.4 48.1°
Sets 06:52:21 0° 62° (ENE) 4,898 9.8 47.8°
